Temp
28 24 22 23 23 25 26 29 29 30 29 29 28 28 27 28 28 26 26 26 27 26 26 25 24 24 23 22 22 21 21 21 20 19 19 20 19 19 19 18 18 18 17 18
24 23 25 25 26 26 30 29 28 29 30 29 28 28 27 26 27 27 26 26 27 27 26 25 25 23 23 23 22 21 21 21 20 20 20 20 20 19 19 18 18 18 18 19
23 26 28 27 27 29 28 28 27 28 29 28 29 25 24 27 28 28 27 27 27 27 26 26 25 24 24 23 23 22 22 21 21 20 20 19 19 19 19 18 18 18 18 19
24 27 28 28 30 27 27 28 29 29 26 25 27 23 24 28 28 27 27 26 26 27 26 26 25 25 25 24 24 22 22 22 21 20 20 20 20 20 19 19 19 18 18 19
25 27 28 29 29 28 27 29 29 28 26 25 26 23 24 26 29 27 27 26 27 27 27 26 26 25 25 25 24 23 22 22 22 21 20 20 20 20 20 19 19 18 18 18
25 29 30 28 30 30 30 29 23 22 20 22 24 24 23 25 28 29 29 29 27 27 27 27 26 25 25 25 24 24 23 23 22 21 20 20 20 20 19 19 19 19 19 18
25 27 29 31 30 27 29 22 21 23 21 23 21 24 24 27 28 26 24 25 26 27 28 26 26 25 25 25 25 24 24 23 23 22 21 20 20 20 19 19 19 19 19 19
24 24 28 30 29 27 28 23 21 26 22 23 24 25 25 24 25 24 24 25 24 24 25 23 25 26 26 25 25 25 24 23 23 22 22 21 21 20 20 19 19 19 19 19
24 26 28 29 30 28 29 26 24 23 22 23 24 25 27 24 24 23 23 23 24 22 21 23 21 24 25 25 25 25 25 24 23 23 22 22 22 22 21 20 19 19 19 19
26 26 26 29 30 29 29 27 25 20 25 24 23 24 24 22 21 22 22 24 23 23 20 20 21 23 25 24 23 24 23 23 23 23 23 23 23 22 22 21 20 20 19 19
24 24 25 26 26 26 24 23 23 22 20 21 22 21 23 21 21 22 21 23 22 22 21 21 23 22 24 24 24 24 24 23 22 22 22 21 22 22 22 22 21 20 19 19
24 20 22 25 26 27 27 26 21 21 24 20 19 21 24 20 20 20 20 20 20 21 20 20 21 22 21 22 22 18 23 20 21 22 24 21 20 22 21 21 22 21 20 19
24 20 20 22 22 23 23 24 24 20 18 21 20 20 21 20 17 18 19 21 22 21 20 20 20 21 21 21 20 19 20 19 21 23 24 21 19 20 21 21 21 21 20 20
24 18 19 19 22 22 23 24 24 21 20 20 20 19 19 19 18 18 20 21 21 21 21 20 20 20 20 20 20 18 18 19 21 23 23 21 20 21 22 22 22 21 21 20
20 20 22 21 22 23 24 24 24 24 23 23 20 19 19 19 18 19 20 21 21 22 21 20 20 20 20 20 19 19 19 18 18 18 20 22 20 21 21 21 22 22 21 21
19 21 20 20 22 21 23 23 24 24 21 19 20 19 19 20 21 21 21 21 21 20 20 21 20 20 19 19 19 20 19 19 19 18 18 19 20 19 20 21 21 21 22 21
20 18 17 19 20 21 21 21 22 21 20 19 19 19 20 19 21 21 20 20 20 20 20 20 20 20 20 19 19 19 19 19 19 19 18 18 19 19 19 20 20 21 21 21
19 17 16 18 19 20 21 21 21 20 20 19 19 19 20 20 21 19 19 20 20 20 20 19 19 19 19 19 19 19 19 19 19 19 18 18 18 18 18 18 18 18 18 19
19 15 17 18 16 19 20 20 20 20 19 19 18 18 19 20 20 19 18 18 18 18 18 18 18 18 18 18 18 18 18 18 18 18 18 18 18 18 18 18 17 17 17 18
16 15 17 15 19 19 19 20 22 20 16 18 18 17 17 18 14 14 18 18 18 17 17 17 17 17 17 17 17 17 17 17 17 17 18 18 17 18 18 18 17 17 17 17
17 16 17 16 17 18 20 21 22 19 16 18 19 18 18 16 17 18 18 18 18 17 17 17 17 17 16 16 16 16 16 16 16 17 17 17 17 17 17 17 17 17 16 16
18 17 16 15 18 18 20 20 20 17 17 18 18 18 18 18 18 18 17 17 17 17 17 16 16 16 16 16 15 15 15 15 15 15 15 16 16 16 16 16 16 17 16 16
17 16 16 16 15 18 19 19 18 19 18 18 18 18 17 17 17 17 17 17 16 16 16 16 16 15 15 15 15 15 15 14 14 14 14 14 15 15 15 16 15 15 17 16
17 19 16 16 16 16 18 18 18 18 18 18 18 18 17 17 17 17 17 16 15 15 15 15 15 15 15 14 14 14 14 14 13 13 13 13 14 14 15 15 15 15 15 16
17 17 16 14 15 17 17 17 17 17 17 17 17 17 16 16 16 16 15 15 15 15 15 14 14 14 14 13 13 13 13 13 13 13 13 13 13 14 14 14 15 15 15 16
17 16 13 12 16 16 17 17 17 17 16 16 16 15 15 15 15 14 14 14 14 13 13 13 13 13 13 13 12 13 13 12 12 12 12 13 13 13 13 14 14 14 15 15
Height
1507 1516 1523 1509 1510 1508 1510 1501 1505 1492 1490 1494 1497 1494 1495 1492 1496 1499 1501 1503 1505 1506 1509 1514 1517 1521 1524 1528 1532 1535 1538 1541 1544 1547 1550 1552 1554 1555 1557 1561 1564 1565 1567 1569
1513 1521 1500 1501 1502 1504 1498 1502 1505 1494 1487 1493 1495 1495 1487 1489 1489 1491 1494 1498 1501 1505 1508 1512 1515 1518 1520 1524 1529 1533 1536 1539 1542 1546 1549 1552 1553 1555 1555 1557 1561 1564 1565 1566
1518 1501 1493 1498 1501 1498 1500 1505 1505 1504 1492 1490 1492 1501 1493 1482 1483 1489 1490 1491 1496 1499 1502 1508 1511 1513 1517 1521 1525 1530 1533 1537 1540 1545 1550 1552 1553 1554 1554 1556 1558 1560 1563 1565
1507 1490 1495 1495 1494 1496 1509 1493 1494 1495 1506 1524 1495 1535 1500 1482 1482 1483 1487 1492 1494 1498 1502 1505 1506 1511 1514 1518 1523 1528 1532 1536 1540 1544 1547 1549 1550 1551 1553 1554 1556 1559 1561 1563
1504 1495 1493 1494 1493 1490 1501 1488 1492 1493 1501 1507 1506 1524 1504 1488 1486 1483 1483 1485 1489 1491 1495 1501 1504 1507 1513 1518 1521 1526 1530 1534 1537 1540 1543 1545 1547 1549 1552 1554 1556 1558 1559 1562
1496 1487 1486 1486 1483 1485 1484 1488 1501 1506 1517 1535 1514 1517 1515 1500 1486 1478 1476 1476 1482 1488 1494 1500 1504 1509 1513 1516 1518 1521 1526 1530 1534 1537 1540 1543 1544 1546 1549 1551 1552 1554 1557 1559
1495 1488 1481 1482 1489 1486 1487 1513 1545 1540 1548 1539 1514 1515 1509 1487 1482 1487 1483 1484 1491 1490 1493 1500 1508 1511 1512 1513 1516 1521 1524 1526 1529 1531 1535 1538 1542 1544 1545 1547 1548 1550 1553 1554
1518 1516 1486 1479 1485 1494 1494 1510 1542 1540 1553 1535 1507 1521 1519 1500 1491 1490 1487 1488 1496 1504 1511 1518 1513 1510 1509 1513 1513 1515 1521 1524 1527 1528 1530 1533 1537 1540 1543 1544 1545 1545 1547 1549
1512 1505 1478 1477 1477 1484 1493 1507 1496 1519 1524 1529 1521 1510 1500 1500 1496 1494 1492 1487 1493 1506 1513 1514 1519 1517 1514 1512 1515 1514 1517 1520 1523 1524 1526 1527 1531 1533 1536 1539 1541 1541 1543 1546
1495 1509 1491 1481 1478 1482 1486 1484 1512 1524 1537 1546 1532 1522 1522 1512 1507 1500 1497 1493 1500 1511 1521 1534 1522 1511 1511 1511 1512 1515 1517 1520 1519 1519 1519 1521 1523 1528 1531 1533 1536 1537 1538 1540
1492 1503 1504 1490 1498 1503 1501 1505 1503 1509 1523 1547 1551 1540 1509 1513 1505 1501 1501 1502 1507 1511 1521 1524 1516 1510 1507 1506 1506 1509 1505 1513 1520 1519 1520 1523 1521 1522 1525 1527 1529 1532 1534 1535
1495 1511 1522 1506 1495 1490 1494 1502 1511 1529 1522 1527 1537 1536 1505 1513 1509 1505 1508 1511 1511 1512 1519 1518 1518 1513 1510 1507 1508 1488 1512 1518 1519 1520 1515 1522 1527 1522 1521 1523 1524 1526 1527 1530
1496 1518 1537 1520 1509 1495 1505 1503 1503 1511 1520 1529 1541 1536 1509 1514 1511 1510 1510 1512 1512 1514 1517 1518 1516 1513 1512 1511 1512 1515 1517 1507 1521 1516 1511 1515 1519 1524 1519 1518 1518 1520 1522 1523
1495 1517 1528 1544 1526 1516 1514 1505 1503 1514 1529 1527 1527 1529 1521 1517 1516 1517 1515 1513 1513 1516 1519 1519 1517 1515 1516 1512 1513 1520 1519 1519 1517 1507 1506 1507 1509 1515 1515 1514 1512 1514 1516 1517
1499 1520 1513 1514 1512 1508 1507 1505 1503 1505 1504 1515 1522 1522 1518 1516 1516 1515 1516 1516 1515 1515 1515 1515 1516 1519 1517 1515 1514 1515 1518 1516 1513 1510 1508 1501 1502 1507 1506 1510 1511 1510 1510 1509
1499 1517 1514 1520 1508 1509 1509 1504 1499 1500 1506 1515 1515 1523 1516 1517 1516 1516 1515 1515 1516 1516 1516 1516 1517 1518 1517 1515 1513 1513 1513 1514 1513 1510 1504 1500 1491 1498 1500 1498 1502 1502 1500 1501
1505 1514 1526 1531 1516 1514 1525 1513 1507 1508 1505 1510 1522 1518 1517 1518 1516 1516 1516 1517 1517 1516 1516 1516 1516 1516 1515 1514 1513 1511 1510 1507 1507 1505 1501 1497 1494 1493 1492 1490 1491 1490 1487 1490
1506 1515 1524 1533 1524 1541 1521 1511 1507 1511 1514 1513 1515 1516 1517 1517 1517 1518 1520 1520 1519 1517 1515 1514 1514 1513 1513 1512 1509 1507 1505 1501 1497 1496 1498 1496 1492 1489 1485 1483 1484 1480 1474 1483
1494 1511 1527 1534 1542 1525 1518 1513 1515 1515 1526 1520 1519 1519 1518 1518 1517 1517 1519 1519 1518 1517 1515 1514 1512 1509 1507 1505 1504 1503 1502 1500 1498 1493 1490 1489 1487 1484 1481 1479 1479 1476 1475 1470
1496 1500 1517 1534 1534 1540 1522 1512 1509 1510 1534 1521 1519 1521 1521 1520 1529 1522 1517 1517 1515 1514 1512 1510 1507 1504 1501 1499 1497 1495 1493 1493 1492 1491 1489 1484 1481 1479 1477 1475 1473 1471 1469 1469
1512 1515 1523 1530 1531 1526 1512 1510 1509 1527 1534 1519 1518 1518 1517 1518 1519 1517 1514 1512 1510 1508 1506 1504 1501 1499 1496 1494 1491 1488 1486 1484 1483 1482 1480 1479 1477 1474 1472 1471 1471 1469 1468 1467
1513 1521 1525 1528 1527 1532 1509 1510 1517 1518 1517 1516 1516 1517 1516 1516 1515 1513 1512 1509 1506 1503 1500 1498 1494 1491 1489 1488 1485 1482 1479 1478 1475 1472 1470 1470 1469 1468 1468 1465 1464 1465 1463 1462
1520 1514 1519 1521 1522 1510 1510 1510 1513 1514 1514 1515 1514 1514 1512 1511 1509 1507 1504 1502 1499 1496 1492 1489 1486 1482 1481 1480 1478 1473 1470 1468 1465 1463 1460 1458 1458 1459 1459 1458 1457 1456 1455 1454
1507 1504 1512 1513 1515 1513 1513 1514 1515 1515 1514 1513 1511 1510 1508 1505 1502 1500 1497 1494 1491 1487 1483 1480 1477 1474 1471 1470 1467 1464 1461 1458 1455 1452 1450 1448 1447 1445 1447 1448 1448 1447 1447 1445
1508 1506 1511 1517 1513 1512 1511 1512 1512 1512 1510 1509 1507 1505 1502 1500 1497 1493 1489 1486 1482 1478 1474 1472 1468 1465 1461 1459 1456 1453 1449 1447 1444 1442 1440 1438 1437 1435 1435 1436 1437 1438 1438 1438
1505 1507 1515 1520 1512 1511 1511 1510 1509 1507 1506 1504 1501 1498 1496 1494 1490 1486 1482 1478 1474 1470 1466 1462 1459 1456 1452 1448 1445 1442 1439 1437 1435 1432 1430 1429 1428 1426 1425 1425 1426 1428 1430 1430
Wind_Speed
6 2 8 13 8 8 7 2 2 3 7 6 7 6 8 21 20 21 26 33 36 33 33 33 36 35 32 31 32 28 25 25 21 20 18 13 15 14 13 13 17 16 13 14
5 6 15 6 8 8 1 2 4 5 4 3 3 7 9 12 21 27 32 32 37 33 29 35 35 37 35 33 33 31 28 27 24 20 19 15 13 15 12 10 19 16 14 15
6 13 8 7 8 2 2 2 6 6 3 3 1 9 7 7 20 23 34 43 39 40 35 36 36 38 34 35 35 33 31 27 24 21 19 16 16 17 16 17 23 19 19 17
7 15 9 8 1 4 2 4 8 5 3 2 4 5 7 4 7 14 22 29 35 39 38 38 38 38 34 32 32 33 30 27 25 23 22 19 20 24 20 17 22 21 21 18
9 8 7 3 5 5 8 6 3 2 2 2 2 4 7 3 3 5 13 29 36 42 42 42 40 39 35 31 33 31 28 27 24 25 23 21 20 21 19 18 18 23 19 16
9 12 3 7 3 4 5 3 8 6 4 3 1 5 5 3 5 4 6 26 39 40 42 40 40 36 35 33 33 31 29 26 23 24 23 22 21 23 22 22 22 22 23 21
6 8 4 2 1 6 4 7 4 4 5 5 1 4 6 5 3 16 25 33 11 33 41 39 38 36 35 36 35 33 31 29 24 22 22 22 21 24 24 24 24 25 26 25
2 7 7 4 7 7 4 8 5 2 3 5 4 4 7 14 23 24 35 39 40 28 6 3 26 34 37 37 35 33 32 32 28 23 22 22 22 25 26 24 25 27 28 26
3 7 6 3 4 8 2 0 6 4 1 3 2 4 2 12 14 18 22 31 42 44 28 13 25 14 28 34 37 34 32 33 31 27 23 23 23 24 24 24 23 28 27 27
3 3 3 6 3 5 1 4 3 4 1 2 3 1 2 5 6 8 14 26 29 22 27 8 13 12 25 22 27 36 36 38 34 30 25 23 24 26 24 24 26 26 29 31
3 3 6 5 5 5 7 7 5 4 5 5 3 4 3 6 7 10 10 9 21 22 20 20 16 11 17 15 25 33 34 35 36 31 30 31 25 26 29 26 26 28 25 24
2 4 1 7 5 2 6 3 4 5 5 1 5 4 3 4 6 17 16 12 15 24 23 25 20 17 12 7 12 15 13 20 28 25 22 32 31 30 30 31 28 27 27 25
2 3 3 10 7 7 6 4 3 2 2 3 5 3 3 9 12 16 20 15 12 14 20 23 22 22 20 14 15 8 20 26 16 22 22 31 30 32 32 32 31 29 29 28
5 3 5 5 5 4 7 7 4 5 2 2 2 5 5 6 8 8 14 15 15 12 14 17 20 20 14 14 15 21 17 6 8 16 19 36 34 34 32 27 26 27 27 29
5 3 2 2 5 3 3 7 8 3 6 5 7 9 4 5 6 12 15 13 9 7 11 16 17 14 13 12 13 14 14 13 11 10 20 35 37 36 35 32 26 25 27 27
3 1 3 8 7 9 5 8 6 4 6 9 13 8 4 12 19 11 11 11 8 6 7 11 14 14 15 15 16 17 18 15 15 15 17 17 12 18 38 37 36 32 30 29
3 4 3 4 5 6 5 7 7 6 6 8 5 6 6 5 10 12 14 10 8 5 5 11 14 14 17 18 18 19 23 23 22 21 20 19 16 21 21 25 35 40 41 34
4 4 3 3 4 2 5 3 16 16 10 9 8 6 8 5 8 21 16 11 10 10 11 11 11 12 14 17 21 24 24 28 31 31 26 23 23 21 22 19 18 23 30 33
4 5 3 3 3 4 5 7 4 3 3 3 6 8 12 10 21 11 20 15 16 16 15 16 18 19 18 16 15 18 21 24 24 29 31 30 31 29 28 25 24 23 23 23
6 6 5 3 3 4 2 6 13 4 1 5 17 10 12 11 3 4 18 20 21 22 23 24 25 23 25 25 24 22 21 20 23 25 30 28 31 32 32 29 27 23 21 16
3 3 5 2 3 1 3 3 3 2 5 6 10 8 8 2 2 12 19 24 26 27 27 23 24 28 28 28 30 31 29 30 28 26 26 26 28 32 34 34 28 24 19 17
4 4 3 2 2 3 2 4 0 5 6 8 7 5 6 5 8 13 18 21 21 24 30 29 35 32 27 26 27 30 31 35 31 31 32 33 30 28 31 33 32 27 22 21
3 5 4 5 5 3 5 9 9 5 4 4 8 11 8 14 18 15 16 20 26 27 29 36 32 30 28 28 31 35 39 32 33 34 36 33 35 33 30 32 31 29 26 24
5 2 3 3 6 11 16 11 9 6 6 8 12 14 18 24 17 21 27 27 28 33 31 30 30 29 29 35 36 33 34 35 31 31 31 32 34 36 34 34 31 28 27 28
3 4 2 3 6 3 10 10 10 11 11 13 16 17 19 22 26 23 27 31 36 34 30 31 31 32 34 35 35 37 37 33 32 33 31 29 29 32 31 31 30 26 25 22
1 3 3 4 3 4 4 10 12 14 17 19 19 20 19 18 24 29 30 29 28 28 31 30 29 33 39 36 34 35 37 35 34 33 28 27 27 29 30 30 29 28 26 23
Wind_Direction
255 86 233 238 199 235 256 30 303 238 200 165 217 238 206 200 201 180 184 182 188 196 202 199 203 208 210 207 204 207 209 208 202 198 193 218 215 200 205 205 204 190 199 210
358 243 249 237 260 231 320 313 294 296 218 127 186 262 243 196 208 191 187 186 190 192 195 195 199 205 208 204 206 210 212 209 204 207 210 221 231 215 212 209 197 196 194 207
203 249 255 239 260 72 313 268 282 233 344 327 161 324 335 215 202 203 195 193 193 192 193 192 196 201 206 206 205 210 213 208 211 212 212 216 214 211 212 213 202 204 204 208
223 260 222 234 233 115 314 206 271 236 63 262 88 280 317 245 194 198 189 190 193 194 195 192 197 196 205 211 212 208 210 212 219 214 216 222 220 212 209 208 207 208 201 202
259 300 286 152 205 131 242 256 67 74 105 50 92 91 264 8 247 226 198 193 195 197 197 197 202 206 208 211 210 212 213 215 223 220 223 227 231 227 221 214 220 216 209 214
245 265 223 211 245 195 254 29 37 36 48 16 14 122 298 203 217 268 228 210 196 195 201 206 206 204 206 208 212 215 216 220 221 224 228 229 234 225 223 219 223 218 217 223
328 272 252 192 93 341 83 53 351 2 2 233 318 64 250 282 321 72 70 64 159 195 201 201 199 205 208 210 215 218 219 220 222 221 223 229 233 226 229 229 228 226 220 216
247 334 161 213 184 184 204 146 158 285 209 264 347 40 3 75 85 72 75 81 65 54 33 238 201 207 214 221 219 220 221 223 222 226 225 227 231 228 230 231 236 234 227 226
41 336 1 159 178 130 257 300 193 136 320 61 328 342 143 39 47 53 65 77 79 63 54 13 306 225 221 228 230 229 228 228 224 226 230 229 231 226 228 229 235 234 235 234
312 28 345 309 3 5 116 198 34 12 87 53 302 323 246 26 37 47 58 88 91 95 98 129 349 268 220 228 235 236 231 233 229 227 231 234 234 237 235 232 235 236 236 240
68 70 300 26 28 330 356 1 25 109 137 152 184 261 226 200 146 92 90 105 122 83 85 67 44 29 263 271 256 234 241 236 236 234 240 246 241 241 240 239 237 237 239 238
7 123 334 244 272 188 107 26 79 108 287 33 135 272 233 58 81 106 84 111 105 95 81 68 56 59 57 135 211 212 245 265 247 249 258 255 258 253 249 244 240 236 236 230
2 26 21 341 359 4 51 360 39 128 80 352 121 248 17 97 81 101 115 110 97 72 75 72 64 52 55 35 31 5 226 268 268 255 268 264 260 260 259 250 245 240 237 234
99 98 143 171 221 238 325 344 9 109 95 208 200 124 65 98 108 113 99 90 80 76 71 64 62 55 42 35 35 42 35 241 226 249 282 269 256 254 256 257 250 244 242 238
104 81 43 198 240 355 292 332 321 288 219 154 177 125 145 134 145 140 117 107 89 38 17 28 40 36 24 10 1 9 25 16 344 273 285 273 260 251 254 253 252 250 247 245
15 209 65 349 346 8 324 320 306 52 73 78 115 104 163 111 102 103 128 114 96 57 10 349 357 2 4 357 358 342 340 347 333 320 340 289 263 271 259 260 252 249 247 246
98 116 75 292 334 350 23 327 64 55 33 134 130 151 138 85 87 92 134 111 99 73 3 344 339 340 334 333 331 332 327 326 330 334 326 324 319 288 277 256 256 253 252 246
131 104 108 222 26 17 225 14 86 81 52 50 79 84 77 101 90 85 56 45 24 6 349 340 333 327 326 320 316 317 317 315 316 316 321 321 315 316 317 306 285 267 259 254
164 118 98 133 170 279 358 2 21 86 27 46 81 50 44 74 118 72 22 18 6 358 351 340 332 324 316 313 314 313 311 310 306 304 307 312 311 312 309 315 324 310 297 262
76 87 118 113 146 231 226 307 352 106 63 32 90 82 74 70 66 283 344 341 338 335 324 316 314 317 312 312 309 308 311 308 300 301 295 300 303 306 309 313 315 317 321 302
46 32 144 161 196 279 224 343 3 98 218 106 80 60 34 66 263 319 321 322 324 322 324 319 321 314 304 304 306 306 306 305 296 293 294 291 291 297 301 304 308 312 308 297
137 133 213 85 127 238 325 39 108 182 118 90 73 47 352 318 302 301 303 305 303 308 311 312 307 307 302 304 306 304 301 302 295 293 291 285 284 282 286 295 301 302 300 292
52 178 175 157 211 199 85 113 101 102 92 12 339 331 309 311 310 307 305 304 303 304 303 305 305 307 297 293 297 300 303 300 296 290 288 285 282 277 276 283 291 297 293 291
320 81 109 78 21 99 88 81 66 39 356 321 312 310 306 308 302 302 306 307 307 310 303 304 303 299 297 298 300 298 304 303 299 296 291 282 281 278 271 272 278 286 288 294
216 30 71 58 1 149 49 36 12 0 349 332 320 316 322 311 306 306 308 309 310 306 300 304 298 296 299 304 302 299 300 299 297 295 293 281 278 278 276 269 272 276 281 281
37 178 123 197 195 163 289 331 332 334 331 328 323 322 322 317 312 315 312 312 312 307 306 299 293 297 301 302 302 306 300 295 291 296 285 284 280 280 276 276 272 270 272 276